Latest Weather Observations for Williamtown

IDN60901

Issued at 4:25 pm EDT Friday 31 October 2014 (issued every 10 minutes, with the page automatically refreshed every 10 minutes)

About weather observations | Map of Sydney area stations | Latest observations for Sydney area | Other Formats
Station Details ID: 061078 Name: WILLIAMTOWN RAAF Lat: -32.79 Lon: 151.84 Height: 9.0 m
Data from the previous 72 hours. | See also: Recent months at Williamtown
Date/Time
EDT
Tmp

°C
App
Tmp
°C
Dew
Point
°C
Rel
Hum
%
Delta-T

°C
Wind Press
QNH
hPa
Press
MSL
hPa
Rain
since
9 am
mm
Dir
 
Spd
km/h
Gust
km/h
Spd
kts
Gust
kts
31/04:00pm 32.5 26.5 5.2 18 14.5 ENE 26 35 14 19 1007.9 - 0.0
31/03:30pm 33.4 28.7 10.7 25 13.2 E 26 35 14 19 1008.1 - 0.0
31/03:00pm 33.5 28.3 5.5 17 15.0 E 22 30 12 16 1008.6 1008.7 0.0
31/02:30pm 33.6 29.2 8.8 21 14.0 ESE 22 30 12 16 1008.8 - 0.0
31/02:00pm 32.6 30.6 13.8 32 11.4 ESE 17 24 9 13 1009.5 - 0.0
31/01:30pm 31.4 29.9 16.2 40 9.5 SE 19 24 10 13 1010.2 - 0.0
31/01:00pm 29.4 26.8 15.8 43 8.4 SE 24 28 13 15 1010.8 - 0.0
31/12:30pm 28.4 26.2 15.9 46 7.7 SSE 22 28 12 15 1011.4 - 0.0
31/12:00pm 28.2 26.3 15.2 45 7.9 SE 19 24 10 13 1012.0 1012.1 0.0
31/11:30am 29.9 28.7 15.0 40 9.1 SE 15 19 8 10 1012.5 - 0.0
31/11:00am 29.3 29.6 12.2 34 10.0 ENE 2 9 1 5 1012.9 - 0.0
31/10:30am 27.4 26.2 11.7 37 9.0 N 9 13 5 7 1013.2 - 0.0
31/10:00am 25.8 24.3 10.4 38 8.6 NNW 9 11 5 6 1013.4 - 0.0
31/09:30am 24.2 23.6 12.3 47 6.8 NW 7 13 4 7 1013.4 - 0.0
31/09:00am 22.7 21.0 12.3 52 5.9 NW 13 15 7 8 1013.5 1013.6 0.0
31/08:30am 20.9 19.5 12.2 57 4.9 NNW 11 13 6 7 1013.6 - 0.0
31/08:00am 19.6 18.2 12.3 62 4.1 NW 11 15 6 8 1013.7 - 0.0
31/07:30am 17.4 17.6 12.9 75 2.5 NW 4 11 2 6 1013.6 - 0.0
31/07:00am 15.1 16.1 13.1 88 1.1 CALM 0 0 0 0 1013.6 - 0.0
31/06:30am 12.7 13.3 11.8 94 0.5 CALM 0 0 0 0 1013.4 - 0.0
31/06:00am 11.9 12.1 10.7 92 0.6 CALM 0 0 0 0 1013.1 1013.2 0.0
31/05:30am 11.7 11.9 10.5 92 0.6 CALM 0 0 0 0 1013.0 - 0.0
31/05:00am 12.5 12.9 11.2 92 0.7 CALM 0 0 0 0 1012.8 - 0.0
31/04:30am 12.4 12.8 11.3 93 0.6 CALM 0 0 0 0 1012.7 - 0.0
31/04:00am 12.9 13.4 11.6 92 0.7 CALM 0 0 0 0 1012.6 - 0.0
31/03:30am 13.7 14.6 12.8 94 0.5 CALM 0 0 0 0 1012.7 - 0.0
31/03:00am 14.3 15.2 13.0 92 0.7 CALM 0 0 0 0 1012.6 1012.7 0.0
31/02:30am 13.6 14.3 12.3 92 0.7 CALM 0 0 0 0 1012.6 - 0.0
31/02:00am 15.4 16.6 13.8 90 0.9 CALM 0 6 0 3 1012.8 - 0.0
31/01:30am 14.8 15.7 13.0 89 1.0 CALM 0 0 0 0 1013.1 - 0.0
31/01:00am 17.0 18.0 14.2 83 1.6 WNW 2 9 1 5 1013.2 - 0.0
31/12:30am 17.7 16.8 14.9 84 1.6 NE 13 15 7 8 1013.4 - 0.0
31/12:00am 15.7 16.9 13.9 89 1.0 CALM 0 0 0 0 1013.6 1013.7 0.0
 
Date/Time
EDT
Tmp

°C
App
Tmp
°C
Dew
Point
°C
Rel
Hum
%
Delta-T

°C
Wind Press
QNH
hPa
Press
MSL
hPa
Rain
since
9 am
mm
Dir
 
Spd
km/h
Gust
km/h
Spd
kts
Gust
kts
30/11:30pm 15.9 17.0 13.4 85 1.4 CALM 0 0 0 0 1013.6 - 0.0
30/11:00pm 16.6 17.4 13.6 82 1.7 ENE 2 7 1 4 1013.6 - 0.0
30/10:30pm 17.5 17.5 14.2 81 1.9 NE 7 11 4 6 1013.5 - 0.0
30/10:00pm 18.5 18.6 14.5 77 2.3 ESE 7 9 4 5 1013.5 - 0.0
30/09:30pm 19.7 19.1 14.5 72 3.0 ENE 11 15 6 8 1013.4 - 0.0
30/09:00pm 20.4 19.7 14.2 67 3.6 E 11 13 6 7 1013.1 1013.2 0.0
30/08:30pm 20.2 19.4 13.0 63 4.1 ENE 9 15 5 8 1012.9 - 0.0
30/08:00pm 20.2 19.7 12.8 62 4.2 SE 7 11 4 6 1012.7 - 0.0
30/07:30pm 21.9 20.5 11.0 50 6.0 SE 9 13 5 7 1012.3 - 0.0
30/07:00pm 23.5 21.6 11.8 47 6.6 ESE 13 17 7 9 1011.8 - 0.0
30/06:30pm 24.9 22.3 10.8 41 7.9 E 15 24 8 13 1011.6 - 0.0
30/06:00pm 25.4 22.8 11.9 43 7.7 NE 17 22 9 12 1011.4 1011.5 0.0
30/05:30pm 26.0 24.1 13.0 44 7.6 NE 15 19 8 10 1011.4 - 0.0
30/05:00pm 27.1 24.8 12.9 41 8.3 ENE 17 22 9 12 1011.3 - 0.0
30/04:30pm 27.1 24.4 11.8 38 8.8 E 17 24 9 13 1011.3 - 0.0
30/04:00pm 26.4 24.0 13.9 46 7.4 ESE 19 24 10 13 1011.5 - 0.0
30/03:30pm 26.3 23.7 13.8 46 7.4 E 20 26 11 14 1011.6 - 0.0
30/03:00pm 25.7 23.9 14.5 50 6.7 ESE 17 24 9 13 1011.8 1011.9 0.0
30/02:30pm 25.6 24.0 15.1 52 6.3 ESE 17 20 9 11 1012.3 - 0.0
30/02:00pm 27.4 25.1 14.2 44 7.9 SE 19 24 10 13 1012.8 - 0.0
30/01:30pm 27.7 24.3 12.4 38 8.9 SE 22 30 12 16 1012.9 - 0.0
30/01:00pm 28.4 27.5 13.8 40 8.7 NE 11 20 6 11 1013.3 - 0.0
30/12:30pm 29.5 26.2 6.6 23 12.2 W 13 24 7 13 1013.5 - 0.0
30/12:00pm 27.7 26.7 13.3 41 8.5 NW 11 15 6 8 1014.2 1014.3 0.0
30/11:30am 26.8 25.4 13.4 43 7.9 NW 13 20 7 11 1014.7 - 0.0
30/11:00am 24.9 23.6 13.8 50 6.5 NNW 13 19 7 10 1015.1 - 0.0
30/10:30am 23.9 22.3 13.8 53 5.9 NW 15 22 8 12 1015.6 - 0.0
30/10:00am 22.3 20.6 13.7 58 5.0 NNW 15 22 8 12 1015.9 - 0.0
30/09:30am 21.1 18.9 13.4 61 4.4 NW 17 20 9 11 1016.0 - 0.0
30/09:00am 20.5 17.9 13.3 63 4.1 NW 19 24 10 13 1016.0 1016.1 0.0
30/08:30am 19.3 16.6 12.9 66 3.6 WNW 19 24 10 13 1016.1 - 0.0
30/08:00am 18.3 16.9 13.3 72 2.8 WNW 13 17 7 9 1016.0 - 0.0
30/07:30am 16.8 15.5 13.8 82 1.7 NW 13 15 7 8 1015.8 - 0.0
30/07:00am 15.0 14.4 13.6 91 0.8 NNW 9 11 5 6 1015.6 - 0.0
30/06:30am 12.9 11.9 12.2 95 0.4 NW 9 9 5 5 1015.6 - 0.0
30/06:00am 12.6 11.8 11.8 95 0.4 NNW 7 9 4 5 1015.3 1015.4 0.0
30/05:30am 12.5 11.4 11.9 96 0.3 NNW 9 11 5 6 1015.3 - 0.0
30/05:00am 12.1 10.9 11.5 96 0.3 NNW 9 11 5 6 1015.2 - 0.0
30/04:30am 12.0 10.6 11.0 94 0.5 WNW 9 11 5 6 1015.1 - 0.0
30/04:00am 12.1 10.8 11.1 94 0.5 N 9 9 5 5 1014.8 - 0.0
30/03:30am 12.6 13.1 11.7 94 0.5 CALM 0 0 0 0 1014.9 - 0.0
30/03:00am 13.4 13.8 11.1 86 1.2 CALM 0 0 0 0 1014.9 1015.0 0.0
30/02:30am 14.2 13.3 12.7 91 0.8 NE 9 9 5 5 1014.9 - 0.0
30/02:00am 14.6 14.3 12.8 89 1.0 ENE 6 9 3 5 1015.3 - 0.0
30/01:30am 15.9 17.0 13.4 85 1.4 CALM 0 0 0 0 1015.6 - 0.0
30/01:00am 16.3 16.1 13.6 84 1.5 ENE 7 11 4 6 1015.8 - 0.0
30/12:30am 16.6 16.4 13.6 82 1.7 E 7 11 4 6 1016.0 - 0.0
30/12:00am 17.0 16.1 13.6 80 1.9 E 11 15 6 8 1016.2 1016.3 0.0
 
Date/Time
EDT
Tmp

°C
App
Tmp
°C
Dew
Point
°C
Rel
Hum
%
Delta-T

°C
Wind Press
QNH
hPa
Press
MSL
hPa
Rain
since
9 am
mm
Dir
 
Spd
km/h
Gust
km/h
Spd
kts
Gust
kts
29/11:30pm 17.1 16.2 13.6 80 2.0 ENE 11 15 6 8 1016.3 - 0.0
29/11:00pm 17.3 16.4 13.6 79 2.1 E 11 20 6 11 1016.4 - 0.0
29/10:30pm 18.0 16.6 13.4 74 2.6 E 13 17 7 9 1016.4 - 0.0
29/10:00pm 18.1 15.8 13.1 72 2.8 ENE 17 24 9 13 1016.5 - 0.0
29/09:30pm 18.2 16.3 13.0 71 2.9 NE 15 24 8 13 1016.6 - 0.0
29/09:00pm 18.5 15.9 13.2 71 3.0 NE 19 30 10 16 1016.4 1016.5 0.0
29/08:30pm 18.4 16.6 13.3 72 2.9 ENE 15 19 8 10 1016.1 - 0.0
29/08:00pm 18.6 16.3 13.1 70 3.1 ENE 17 28 9 15 1015.9 - 0.0
29/07:30pm 18.9 16.6 13.0 68 3.3 ENE 17 26 9 14 1015.8 - 0.0
29/07:00pm 19.4 16.5 13.0 66 3.6 ENE 20 30 11 16 1015.6 - 0.0
29/06:30pm 20.1 16.9 13.0 63 4.0 ENE 22 33 12 18 1015.4 - 0.0
29/06:00pm 20.6 16.2 12.8 61 4.4 ENE 28 39 15 21 1015.1 1015.2 0.0
29/05:30pm 21.5 17.9 12.9 58 4.9 ENE 24 33 13 18 1015.1 - 0.0
29/05:00pm 22.4 18.8 13.0 55 5.4 E 24 32 13 17 1014.9 - 0.0
29/04:30pm 22.4 18.1 11.9 51 5.9 ESE 26 32 14 17 1015.1 - 0.0
29/04:00pm 22.9 18.4 11.5 48 6.4 E 26 33 14 18 1015.1 - 0.0
29/03:30pm 23.2 18.1 9.3 41 7.5 E 26 28 14 15 1015.3 - 0.0
29/03:00pm 23.4 19.1 10.8 45 7.0 E 24 30 13 16 1015.7 1015.8 0.0
29/02:30pm 23.2 19.7 12.3 50 6.2 ESE 22 32 12 17 1016.1 - 0.0
29/02:00pm 22.5 18.5 13.1 55 5.4 SE 26 32 14 17 1016.4 - 0.0
29/01:30pm 22.7 18.1 9.8 44 7.0 ESE 24 33 13 18 1016.6 - 0.0
29/01:00pm 22.8 17.8 7.9 38 7.8 SE 24 32 13 17 1016.7 - 0.0
29/11:00am 23.4 17.1 5.8 32 8.9 S 28 32 15 17 1017.7 - 0.0
29/10:30am 22.9 16.6 5.6 32 8.7 S 28 33 15 18 1017.6 - 0.0
29/10:00am 23.7 19.1 6.6 33 8.8 S 20 32 11 17 1017.6 - 0.0
29/09:30am 22.4 17.5 5.3 33 8.5 S 20 26 11 14 1017.4 - 0.0
29/09:00am 22.2 19.3 6.7 36 7.9 S 11 15 6 8 1017.2 1017.3 0.0
29/08:30am 20.5 17.7 6.9 41 6.9 WSW 11 13 6 7 1017.1 - 0.0
29/08:00am 19.1 17.8 7.5 47 5.9 WNW 4 9 2 5 1017.1 - 0.0
29/07:30am 17.1 16.4 7.0 51 5.0 CALM 0 0 0 0 1016.7 - 0.0
29/07:00am 14.1 12.1 6.9 62 3.5 NW 7 9 4 5 1016.3 - 0.0
29/06:30am 11.3 10.5 6.4 72 2.3 CALM 0 0 0 0 1016.0 - 0.0
29/06:00am 11.3 7.9 5.7 68 2.6 W 13 13 7 7 1015.7 1015.8 0.0
29/05:30am 12.0 11.0 5.5 64 3.0 CALM 0 0 0 0 1015.2 - 0.0
29/05:00am 12.5 10.2 5.6 63 3.2 WSW 7 9 4 5 1014.7 - 0.0
29/04:30am 12.7 10.0 5.4 61 3.4 W 9 9 5 5 1014.5 - 0.0
29/04:00am 12.8 10.6 6.3 64 3.1 WSW 7 9 4 5 1014.3 - 0.0
29/03:30am 14.0 11.1 4.4 52 4.4 WNW 9 11 5 6 1014.1 - 0.0
29/03:00am 14.0 12.4 4.7 53 4.3 W 2 9 1 5 1014.0 1014.1 0.0
29/02:30am 13.8 11.8 4.2 52 4.4 W 4 9 2 5 1013.8 - 0.0
29/02:00am 14.6 12.2 5.3 53 4.4 W 7 7 4 4 1013.8 - 0.0
29/01:30am 16.7 13.7 4.1 43 5.9 W 9 13 5 7 1013.7 - 0.0
29/01:00am 17.1 13.2 3.2 39 6.4 W 13 17 7 9 1013.7 - 0.0
29/12:30am 16.9 13.1 3.8 41 6.1 W 13 15 7 8 1013.8 - 0.0
29/12:00am 15.7 12.3 5.7 51 4.8 W 13 15 7 8 1013.5 1013.6 0.0
 
Date/Time
EDT
Tmp

°C
App
Tmp
°C
Dew
Point
°C
Rel
Hum
%
Delta-T

°C
Wind Press
QNH
hPa
Press
MSL
hPa
Rain
since
9 am
mm
Dir
 
Spd
km/h
Gust
km/h
Spd
kts
Gust
kts
28/11:30pm 14.9 11.9 9.2 68 2.9 WNW 15 17 8 9 1013.3 - 0.0
28/11:00pm 16.1 14.3 9.6 65 3.4 WSW 9 11 5 6 1013.0 - 0.0
28/10:30pm 16.8 17.1 11.0 68 3.1 CALM 0 0 0 0 1012.6 - 0.0
28/10:00pm 15.9 16.1 13.0 83 1.6 S 4 11 2 6 1012.3 - 0.0
28/09:30pm 16.5 17.2 13.5 82 1.7 W 2 11 1 6 1012.1 - 0.0
28/09:00pm 17.3 18.6 14.0 81 1.9 CALM 0 0 0 0 1011.6 1011.7 0.0
28/08:30pm 18.6 20.3 15.2 80 2.0 CALM 0 4 0 2 1011.1 - 0.0
28/08:00pm 18.8 18.6 13.5 71 3.0 N 7 11 4 6 1010.6 - 0.0
28/07:30pm 20.5 19.6 11.3 55 5.1 N 7 11 4 6 1010.1 - 0.0
28/07:00pm 23.0 21.7 10.0 43 7.1 ENE 7 9 4 5 1009.6 - 0.0
28/06:30pm 23.8 21.4 8.7 38 8.1 SE 11 13 6 7 1009.2 - 0.0
28/06:00pm 24.6 22.0 7.8 34 8.9 SE 11 15 6 8 1008.9 1009.0 0.0
28/05:30pm 24.9 22.2 7.5 33 9.2 SSE 11 17 6 9 1008.7 - 0.0
28/05:00pm 24.8 21.6 7.0 32 9.3 SE 13 24 7 13 1008.5 - 0.0
28/04:30pm 25.1 21.2 7.0 31 9.5 SSE 17 26 9 14 1008.5 - 0.0

Latest Capital City Observations: Canberra | Sydney | Melbourne | Brisbane | Adelaide | Perth | Hobart | Darwin

Other Formats:

Comma delimited format used in spreadsheet applications
http://www.bom.gov.au/fwo/IDN60901/IDN60901.94776.axf

JavaScript Object Notation format (JSON) in row-major order
http://www.bom.gov.au/fwo/IDN60901/IDN60901.94776.json